A form allowing access to any MPEC is at the bottom of this page.
Read MPEC 2007-V48
Read MPEC 2007-V50
M.P.E.C. 2007-V49 Issued 2007 Nov. 6, 16:58 UT
The Minor Planet Electronic Circulars contain information on unusual
minor planets and routine data on comets. They are published
on behalf of Commission 20 of the International Astronomical Union by the
Minor Planet Center, Smithsonian Astrophysical Observatory,
Cambridge, MA 02138, U.S.A.
Prepared using the Tamkin Foundation Computer Network
MPC@CFA.HARVARD.EDU
URL http://www.cfa.harvard.edu/iau/mpc.html ISSN 1523-6714
COMET C/2007 B2 (SKIFF)
Observations:
CK07B020 C2007 10 20.81852 11 39 55.18 +17 53 19.2 EV049349
CK07B020 C2007 10 20.82160 11 39 55.40 +17 53 17.4 EV049349
CK07B020 C2007 10 20.82469 11 39 55.58 +17 53 15.9 16.4 T EV049349
CK07B020 C2007 10 27.83532 11 46 58.56 +16 59 17.8 EV049349
CK07B020 C2007 10 27.83684 11 46 58.63 +16 59 16.7 16.5 T EV049349
Observer details:
349 Ageo. Observer K. Kadota. 0.25-m f/5.0 reflector + CCD.
Orbital elements:
C/2007 B2 (Skiff)
Epoch 2008 Aug. 2.0 TT = JDT 2454680.5
T 2008 Aug. 20.87563 TT MPC
q 2.9748705 (2000.0) P Q
z +0.0013999 Peri. 206.00407 -0.76886089 +0.62834331
+/-0.0000051 Node 14.86983 -0.47596226 -0.43867253
e 0.9958355 Incl. 27.49615 -0.42698110 -0.64245707
Residuals in seconds of arc
070123 699 0.1- 0.0 070310 130 0.3- 0.2- 070407 J70 (5.8+ 3.7-)
070123 699 1.1- 0.2- 070310 232 0.1+ 0.2+ 070407 J70 (1.9- 7.3+)
070123 699 0.5+ 0.7+ 070310 A24 0.2- 0.1- 070407 J70 (3.3- 2.0-)
070123 699 0.7- 0.1+ 070310 232 0.1+ 0.2- 070408 A24 0.1- 0.4-
070123 J95 0.2+ 0.1+ 070310 232 0.1- 0.4- 070408 A24 0.5+ 0.2+
070123 J95 0.1- 0.2- 070310 A24 0.0 0.2+ 070408 A24 0.5+ 0.2-
070123 J95 0.2- 0.1+ 070311 B30 0.9+ 1.6+ 070408 A24 0.2+ 1.1+
070123 J95 0.1- 0.5+ 070311 A24 1.1- 0.1- 070408 A24 0.8+ 0.1+
070123 J95 0.0 0.3- 070311 A24 0.8- 0.5- 070408 A24 0.1+ 0.2+
070123 J95 0.1+ 0.0 070311 A24 0.7- 0.7- 070408 A24 0.4- 0.0
070123 J95 0.2- 0.2- 070311 A32 0.4- 0.4- 070409 A24 0.0 1.5+
070124 854 0.2+ 0.0 070311 A32 0.4- 0.1- 070409 A24 0.3+ 0.0
070124 012 0.3+ 0.6- 070311 A32 0.3- 0.2- 070409 A24 0.1- 0.3+
070124 012 1.1- 0.2- 070311 A24 0.1+ 0.5- 070409 A24 0.1- 0.4+
070124 854 0.0 0.1+ 070311 A24 0.1- 0.1- 070409 A24 0.2- 0.6+
070124 012 0.7- 0.4- 070311 A24 0.2- 0.1- 070409 A24 0.8- 0.9+
070124 012 0.1+ 0.7- 070312 A24 0.4- 0.2+ 070409 A24 0.2- 0.7+
070124 012 0.2+ 0.5- 070312 A24 0.3+ 0.7+ 070409 A24 0.0 0.6+
070124 854 0.4+ 0.1+ 070312 A24 0.9- 0.0 070409 A24 0.2+ 0.2+
070124 012 0.3- 0.6- 070312 A24 1.1- 0.3+ 070409 A24 0.5+ 0.0
070124 012 0.1+ 0.4- 070312 A24 0.4- 0.2- 070409 A24 0.3+ 0.3-
070124 300 1.3+ 0.0 070312 B30 0.4- 0.4- 070410 A24 0.1- 0.2+
070124 300 0.5+ 0.3- 070312 A24 0.6- 0.1- 070410 A24 0.0 0.4+
070124 300 1.6+ 0.2- 070312 B30 0.9- 0.0 070410 A24 0.1+ 0.1+
070124 A74 0.1- 0.2+ 070312 A24 0.5- 0.4+ 070410 A24 0.2+ 0.0
070124 A74 0.5- 0.1+ 070312 A24 0.6- 0.2+ 070410 A24 0.0 0.0
070124 A74 0.5- 0.2+ 070312 A24 0.2- 0.2- 070410 A24 0.0 0.3-
070125 704 0.6+ 0.2- 070312 A24 0.1- 0.3- 070411 215 0.0 0.1-
070125 704 0.8+ 0.3+ 070312 A24 0.2+ 0.8- 070411 215 0.1+ 0.0
070125 704 0.1- 0.8+ 070312 A24 0.3- 0.0 070411 215 0.1+ 0.0
070125 704 0.1- 0.2+ 070312 A24 0.0 0.4- 070411 A24 0.4- 0.9+
070125 704 1.7- 0.6+ 070313 A24 0.2- 0.2- 070411 A24 0.1- 0.3-
070125 682 0.3- 0.3+ 070313 A24 0.0 0.2- 070411 A24 0.0 0.1+
070125 682 0.6- 0.4+ 070313 A24 0.6- 0.1- 070411 A32 0.5+ 0.1-
070125 349 0.3+ 0.4- 070313 A24 0.0 0.3- 070411 A24 0.2- 0.4-
070125 349 0.4+ 0.5- 070313 A24 0.2- 0.2- 070411 A32 0.2+ 0.2+
070125 349 0.1+ 0.6- 070313 A24 0.3- 0.1- 070411 A24 0.1- 0.6-
070125 372 1.0+ 0.7- 070313 A24 0.5- 0.1- 070411 A24 0.6- 0.4-
070125 J95 0.0 0.3- 070313 D88 1.0+ 0.4- 070411 A32 0.0 0.3+
070125 J95 0.1- 0.3- 070313 D88 1.0+ 0.7- 070411 A24 0.2- 0.2-
070125 J95 0.0 0.2- 070313 D88 0.1+ 0.8- 070411 A24 0.3- 0.1+
070126 213 0.4+ 0.8+ 070313 A24 0.2- 0.1+ 070412 A24 0.3- 0.2+
070126 213 0.2+ 0.7+ 070313 A24 0.2- 0.2+ 070412 A24 0.4- 0.1+
070126 213 0.2+ 0.7+ 070313 A24 0.1+ 0.1- 070412 561 0.3+ 0.1+
070128 213 0.3- 0.1- 070313 A24 0.1+ 0.0 070412 561 0.2- 0.5+
070128 213 0.2- 0.1+ 070313 A24 0.2+ 0.1- 070412 561 0.1+ 0.3+
070128 213 0.3- 0.1- 070313 A24 0.1- 0.0 070414 561 0.1+ 0.2+
070128 232 0.6- 0.6- 070313 A24 0.4+ 0.1+ 070414 561 0.1- 0.2+
070128 232 0.1- 0.8- 070313 A24 0.0 0.0 070414 561 0.0 0.3+
070128 232 0.4+ 1.0- 070313 A24 0.3+ 0.2+ 070415 A32 0.0 0.1-
070128 H45 0.0 0.1- 070313 A24 0.1+ 0.1- 070415 A32 0.1+ 0.0
070128 H45 0.1- 0.4- 070313 A24 0.3+ 0.3+ 070415 A32 0.2+ 0.2+
070128 H45 0.1+ 0.1+ 070313 A24 0.0 0.1+ 070421 213 0.1+ 0.3-
070128 H45 0.0 0.1- 070314 A24 0.1- 0.1+ 070421 213 0.1+ 0.6-
070128 H45 0.1- 0.1- 070314 A24 0.5- 0.5- 070423 213 0.3- 0.6-
070129 213 0.2+ 0.0 070314 A24 0.1- 0.1- 070423 213 0.2- 0.6-
070129 213 0.1+ 0.0 070314 A24 0.2- 0.0 070423 213 0.3- 0.1+
070129 213 0.1- 0.0 070314 A24 0.3- 0.1- 070428 213 0.2- 0.3-
070203 J95 0.3- 0.1- 070314 A24 0.1+ 0.2- 070428 213 0.1- 0.1-
070203 J95 0.1+ 0.3- 070314 A24 0.7- 0.1+ 070428 213 0.1- 0.1-
070204 J95 0.4+ 0.6- 070314 A24 0.5- 0.0 070428 A33 0.3- 0.2-
070208 673 1.1+ 0.0 070314 213 0.0 0.1- 070428 204 0.5+ 0.5+
070208 673 0.8+ 0.1- 070314 213 0.0 0.6- 070429 D88 1.4+ 1.0+
070208 673 0.3+ 0.1- 070314 213 0.2- 0.7- 070429 D88 1.0+ 1.0+
070208 673 0.3+ 0.3- 070314 A24 0.1+ 0.2- 070429 D88 0.8+ 0.6+
070209 704 0.8+ 0.7+ 070314 A24 0.3- 0.3- 070430 A33 0.2+ 0.3-
070209 704 0.7+ 1.7+ 070314 A24 0.3- 0.2+ 070501 224 0.3+ 0.0
070209 704 0.3+ 1.9+ 070314 A24 0.4- 0.1- 070501 224 0.6+ 0.0
070209 704 (0.3- 2.2+) 070314 A24 0.1- 0.5- 070501 224 0.2+ 0.2+
070209 215 0.1+ 0.1+ 070314 A24 0.1- 0.0 070501 224 0.6- 0.8-
070209 215 0.5- 0.1- 070314 A24 0.1- 0.2+ 070505 J67 0.0 0.3+
070209 215 1.7- 0.5- 070314 A24 0.6+ 0.2- 070505 J67 0.0 0.2-
070210 213 0.6+ 0.4+ 070314 A24 0.0 0.6+ 070505 J67 0.3- 0.4-
070210 213 0.2+ 0.4+ 070314 A24 0.3+ 0.1+ 070506 213 0.7+ 0.5+
070210 213 0.2+ 1.0+ 070314 A24 0.0 0.5+ 070506 213 0.6+ 0.2+
070210 232 0.3- 0.2- 070314 A24 0.1- 0.2+ 070506 213 0.7+ 0.4-
070210 232 0.2+ 0.1+ 070315 A24 0.3- 0.9+ 070507 D88 0.3+ 0.8+
070210 232 0.1+ 0.1+ 070315 A24 0.3+ 0.1+ 070507 D88 0.6+ 0.5-
070216 204 0.1- 0.2+ 070315 A24 0.1+ 0.5+ 070507 D88 0.4+ 0.6-
070216 204 0.0 0.2+ 070315 A24 0.6- 0.5+ 070508 D88 0.1- 0.1-
070218 A32 1.1- 0.6+ 070315 A24 (0.1+ 5.1-) 070508 D88 1.1+ 0.4-
070218 349 0.5+ 0.3- 070315 A24 0.0 0.2+ 070509 J79 0.7+ 0.6-
070218 349 0.6+ 0.1- 070315 A24 0.0 1.0+ 070509 J79 1.0+ 0.8+
070218 B30 (1.1- 3.6+) 070315 A24 0.3+ 0.7+ 070509 J79 1.1+ 0.0
070218 B30 0.8- 2.0- 070315 A24 0.4+ 0.5+ 070511 J70 (3.1+ 2.7+)
070223 D88 0.5+ 0.2+ 070315 A24 0.4+ 1.0+ 070511 J70 (2.5+ 2.6+)
070223 D88 0.1+ 0.3+ 070315 A24 0.1+ 1.2+ 070511 J70 (2.2+ 2.6+)
070226 703 0.5- 0.7+ 070315 A24 0.6- 1.0+ 070511 J70 (1.7+ 2.3+)
070226 703 0.4- 0.3- 070315 A24 0.8- 1.0+ 070511 J76 0.0 0.4+
070226 703 0.5+ 0.9- 070317 703 0.0 0.1+ 070511 J76 0.0 0.4+
070226 703 0.2+ 0.1- 070317 703 0.1- 0.3- 070511 J76 0.8- 0.8+
070303 213 0.1- 0.4+ 070317 703 0.7- 1.2- 070513 703 (0.8+ 2.5+)
070303 213 0.1- 0.2+ 070317 703 0.5- 0.2- 070513 703 0.2+ 2.0+
070303 213 0.1+ 0.3+ 070317 A10 0.4+ 0.1+ 070513 703 0.3+ 0.0
070303 232 0.1- 0.5+ 070317 A10 0.5+ 0.1+ 070513 703 0.8+ 0.3+
070303 232 0.1- 0.3+ 070317 232 1.0+ 0.0 070518 J79 (1.4+ 2.9+)
070303 232 0.2+ 0.1- 070317 232 0.6+ 0.6+ 070518 J79 0.3- 1.2-
070305 J70 0.3+ 0.2+ 070318 232 0.3+ 0.7+ 070518 J79 0.8+ 0.2+
070305 J70 0.2+ 0.4+ 070320 213 0.5- 0.2- 070519 215 0.1+ 0.4-
070305 J70 1.1+ 1.0+ 070320 213 0.5- 0.0 070519 215 0.3+ 0.4-
070306 461 0.2+ 0.2+ 070320 213 0.4- 0.1- 070519 215 0.2+ 0.2-
070306 461 0.2- 0.2+ 070324 A32 0.0 0.6+ 070530 J70 0.4- 1.5-
070306 461 0.2- 0.3+ 070324 A32 0.2+ 0.4+ 070530 J70 (0.7- 2.4-)
070307 355 0.2+ 0.3- 070324 A32 0.4+ 0.2+ 070530 J70 0.6- 0.8-
070307 355 0.1- 0.3- 070405 B30 (1.5+ 5.1-) 070530 J70 1.0- 1.5-
070307 355 0.0 0.1- 070406 442 0.8+ 0.4+ 070607 703 1.3- 0.2-
070308 D88 0.4- 0.6- 070406 442 0.6+ 0.6+ 070607 703 0.3- 0.5+
070308 D88 0.8- 0.1- 070406 A24 0.4+ 0.1+ 070607 703 0.8- 0.1-
070308 D88 0.2- 0.3- 070406 A24 0.1+ 0.2+ 070607 703 0.9- 1.4-
070309 213 0.6+ 0.1- 070406 A24 0.2+ 0.0 071020 349 0.7- 0.1+
070309 213 0.5+ 0.3+ 070406 A24 0.1+ 0.1+ 071020 349 0.2- 0.3-
070309 213 0.5+ 0.2+ 070407 213 0.4- 0.4- 071020 349 0.3- 0.3-
070310 130 0.0 0.2- 070407 213 0.5- 0.4- 071027 349 0.3+ 0.1+
070310 130 0.2- 0.3- 070407 213 0.4- 0.5- 071027 349 0.0 0.3-
070310 130 0.1- 0.3- 070407 J70 (1.7+ 3.6-)
Ephemeris:
C/2007 B2 (Skiff)
Date TT R. A. (2000) Decl. Delta r Elong. Phase m1 m2
2007 11 06 11 55.98 +15 50.6 4.613 4.076 51.8 11.0 15.4
2007 11 16 12 05.44 +14 38.5 4.434 4.014 58.9 12.2 15.3
2007 11 26 12 14.42 +13 29.9 4.247 3.952 66.1 13.2 15.1
2007 12 06 12 22.80 +12 25.3 4.053 3.892 73.6 14.1 14.9
2007 12 16 12 30.42 +11 25.4 3.855 3.833 81.4 14.7 14.8
2007 12 26 12 37.11 +10 30.4 3.654 3.775 89.4 15.1 14.6
The "original" and "future" barycentric values of 1/a are +0.001709
and +0.001792 (+/- 0.000005) AU^-1, respectively.
Brian G. Marsden (C) Copyright 2007 MPC M.P.E.C. 2007-V49
Read MPEC 2007-V48
Read MPEC 2007-V50
Enter an MPEC number in one of the following forms: